| time (UTC) | temp F | wind direction | speed knots | gust knots | rain 1hr in | rain 24hr in | rain mn in | humidity % | barometer mb |
| 20260903151542 | 81 | 236 | 0.9 | 4.3 | 0.00 | 0.00 | 0.00 | 21 | 951.1 |
| 20260903150041 | 80 | 222 | 0.0 | 0.0 | 0.00 | 0.00 | 0.00 | 21 | 951.1 |
| 20260903144540 | 79 | 223 | 0.0 | 0.0 | 0.00 | 0.00 | 0.00 | 21 | 951.0 |
| 20260903143037 | 80 | 216 | 0.9 | 2.6 | 0.00 | 0.00 | 0.00 | 20 | 950.8 |
| 20260903141536 | 80 | 94 | 0.0 | 0.0 | 0.00 | 0.00 | 0.00 | 20 | 950.6 |
| 20260903140034 | 80 | 126 | 0.0 | 0.0 | 0.00 | 0.00 | 0.00 | 20 | 950.4 |
| 20260903134532 | 77 | 187 | 0.9 | 2.6 | 0.00 | 0.00 | 0.00 | 21 | 950.3 |
| 20260903133028 | 76 | 104 | 0.9 | 4.3 | 0.00 | 0.00 | 0.00 | 21 | 950.0 |
| 20260903131526 | 77 | 112 | 1.7 | 3.5 | 0.00 | 0.00 | 0.00 | 20 | 949.8 |
| 20260903130029 | 77 | 113 | 2.6 | 4.3 | 0.00 | 0.00 | 0.00 | 20 | 949.8 |
| 20260903124523 | 77 | 112 | 2.6 | 3.5 | 0.00 | 0.00 | 0.00 | 19 | 949.7 |
| 20260903123022 | 75 | 95 | 2.6 | 6.1 | 0.00 | 0.00 | 0.00 | 19 | 949.6 |
| 20260903121521 | 76 | 88 | 3.5 | 5.2 | 0.00 | 0.00 | 0.00 | 18 | 949.5 |
| 20260903120019 | 77 | 108 | 1.7 | 3.5 | 0.00 | 0.00 | 0.00 | 17 | 949.5 |
| 20260903114517 | 78 | 121 | 1.7 | 4.3 | 0.00 | 0.00 | 0.00 | 16 | 949.6 |
| 20260903113025 | 78 | 101 | 0.9 | 2.6 | 0.00 | 0.00 | 0.00 | 16 | 949.6 |
| 20260903111512 | 78 | 169 | 0.0 | 4.3 | 0.00 | 0.00 | 0.00 | 15 | 949.5 |
| 20260903110014 | 80 | 139 | 1.7 | 3.5 | 0.00 | 0.00 | 0.00 | 15 | 949.4 |
| 20260903104507 | 80 | 129 | 1.7 | 3.5 | 0.00 | 0.00 | 0.00 | 14 | 949.5 |
| 20260903103005 | 81 | 138 | 2.6 | 4.3 | 0.00 | 0.00 | 0.00 | 14 | 949.5 |
| 20260903101507 | 81 | 128 | 3.5 | 5.2 | 0.00 | 0.00 | 0.00 | 14 | 949.4 |
| 20260903100004 | 81 | 114 | 3.5 | 5.2 | 0.00 | 0.00 | 0.00 | 14 | 949.3 |
| 20260903094505 | 82 | 113 | 3.5 | 5.2 | 0.00 | 0.00 | 0.00 | 13 | 949.3 |
| 20260903093002 | 82 | 120 | 2.6 | 5.2 | 0.00 | 0.00 | 0.00 | 13 | 949.2 |
| 20260903091600 | 81 | 97 | 4.3 | 7.0 | 0.00 | 0.00 | 0.00 | 12 | 949.2 |
| 20260903091502 | 81 | 85 | 4.3 | 7.0 | 0.00 | 0.00 | 0.00 | 12 | 949.2 |
| 20260903090058 | 82 | 113 | 1.7 | 4.3 | 0.00 | 0.00 | 0.00 | 12 | 949.2 |
| 20260903084556 | 83 | 109 | 3.5 | 4.3 | 0.00 | 0.00 | 0.00 | 12 | 949.3 |
| 20260903083054 | 83 | 1.7 | 3.5 | 0.00 | 0.00 | 0.00 | 12 | 949.4 | |
| 20260903081553 | 83 | 1.7 | 5.2 | 0.00 | 0.00 | 0.00 | 12 | 949.4 | |
| 20260903080051 | 84 | 1.7 | 2.6 | 0.00 | 0.00 | 0.00 | 11 | 949.4 | |
| 20260903074559 | 84 | 140 | 0.9 | 3.5 | 0.00 | 0.00 | 0.00 | 11 | 949.3 |
| 20260903073047 | 85 | 305 | 0.0 | 2.6 | 0.00 | 0.00 | 0.00 | 12 | 949.2 |
| 20260903071550 | 87 | 242 | 0.9 | 5.2 | 0.00 | 0.00 | 0.00 | 10 | 949.1 |
| 20260903070041 | 87 | 110 | 4.3 | 7.8 | 0.00 | 0.00 | 0.00 | 9 | 949.1 |
| 20260903064540 | 88 | 110 | 6.1 | 10.4 | 0.00 | 0.00 | 0.00 | 9 | 949.0 |
| 20260903063041 | 87 | 129 | 7.0 | 10.4 | 0.00 | 0.00 | 0.00 | 9 | 949.0 |
| 20260903061549 | 87 | 105 | 7.0 | 10.4 | 0.00 | 0.00 | 0.00 | 9 | 949.0 |
| 20260903060038 | 88 | 112 | 8.7 | 11.3 | 0.00 | 0.00 | 0.00 | 9 | 949.0 |
| 20260903054546 | 88 | 113 | 6.1 | 8.7 | 0.00 | 0.00 | 0.00 | 10 | 949.2 |
| 20260903053059 | 88 | 107 | 5.2 | 9.6 | 0.00 | 0.00 | 0.00 | 10 | 949.2 |
| 20260903051536 | 88 | 121 | 5.2 | 7.0 | 0.00 | 0.00 | 0.00 | 10 | 949.2 |
| 20260903050035 | 88 | 108 | 5.2 | 7.8 | 0.00 | 0.00 | 0.00 | 10 | 949.2 |
| 20260903044545 | 89 | 113 | 4.3 | 7.8 | 0.00 | 0.00 | 0.00 | 9 | 949.3 |
| 20260903043034 | 89 | 107 | 6.1 | 9.6 | 0.00 | 0.00 | 0.00 | 9 | 949.3 |
| 20260903041534 | 89 | 105 | 7.0 | 8.7 | 0.00 | 0.00 | 0.00 | 9 | 949.2 |
| 20260903040034 | 89 | 5.2 | 7.8 | 0.00 | 0.00 | 0.00 | 9 | 949.1 | |
| 20260903034532 | 89 | 4.3 | 6.1 | 0.00 | 0.00 | 0.00 | 10 | 948.9 | |
| 20260903033031 | 90 | 4.3 | 7.0 | 0.00 | 0.00 | 0.00 | 10 | 948.7 | |
| 20260903031531 | 91 | 4.3 | 6.1 | 0.00 | 0.00 | 0.00 | 10 | 948.7 | |
| 20260903030039 | 92 | 117 | 1.7 | 4.3 | 0.00 | 0.00 | 0.00 | 9 | 948.6 |
| 20260903024539 | 93 | 190 | 2.6 | 6.1 | 0.00 | 0.00 | 0.00 | 9 | 948.4 |
| 20260903023029 | 94 | 203 | 3.5 | 7.8 | 0.00 | 0.00 | 0.00 | 9 | 948.4 |
| 20260903021533 | 95 | 181 | 6.1 | 11.3 | 0.00 | 0.00 | 0.00 | 9 | 948.3 |
| 20260903020031 | 96 | 240 | 5.2 | 10.4 | 0.00 | 0.00 | 0.00 | 8 | 948.4 |
| 20260903014527 | 97 | 173 | 8.7 | 13.9 | 0.00 | 0.00 | 0.00 | 8 | 948.4 |
| 20260903013027 | 98 | 172 | 7.8 | 11.3 | 0.00 | 0.00 | 0.00 | 7 | 948.3 |
| 20260903011538 | 98 | 212 | 10.4 | 13.9 | 0.00 | 0.00 | 0.00 | 7 | 948.2 |
| 20260903010025 | 98 | 152 | 9.6 | 16.5 | 0.00 | 0.00 | 0.00 | 7 | 948.4 |
| 20260903004531 | 98 | 178 | 7.8 | 19.1 | 0.00 | 0.00 | 0.00 | 7 | 948.5 |
| 20260903003023 | 99 | 182 | 11.3 | 18.2 | 0.00 | 0.00 | 0.00 | 7 | 948.4 |
| 20260903001522 | 99 | 136 | 13.0 | 20.9 | 0.00 | 0.00 | 0.00 | 7 | 948.4 |
| 20260903000023 | 99 | 148 | 7.0 | 16.5 | 0.00 | 0.00 | 0.00 | 9 | 948.4 |
| 20260902234521 | 99 | 7.8 | 13.9 | 0.00 | 0.00 | 0.00 | 8 | 948.6 | |
| 20260902233028 | 99 | 139 | 7.0 | 13.0 | 0.00 | 0.00 | 0.00 | 9 | 948.7 |
| 20260902231518 | 98 | 152 | 13.0 | 19.1 | 0.00 | 0.00 | 0.00 | 10 | 948.8 |
| 20260902230015 | 98 | 8.7 | 17.4 | 0.00 | 0.00 | 0.00 | 10 | 948.9 | |
| 20260902224514 | 98 | 169 | 7.8 | 17.4 | 0.00 | 0.00 | 0.00 | 10 | 949.2 |
| 20260902223011 | 99 | 8.7 | 17.4 | 0.00 | 0.00 | 0.00 | 10 | 949.3 | |
| 20260902221507 | 98 | 168 | 9.6 | 13.9 | 0.00 | 0.00 | 0.00 | 11 | 949.7 |
| 20260902220007 | 98 | 7.8 | 20.9 | 0.00 | 0.00 | 0.00 | 11 | 949.8 | |
| 20260902214505 | 97 | 171 | 12.2 | 21.7 | 0.00 | 0.00 | 0.00 | 11 | 950.1 |
| 20260902213003 | 97 | 163 | 6.1 | 20.9 | 0.00 | 0.00 | 0.00 | 12 | 950.1 |
| 20260902211503 | 97 | 188 | 10.4 | 16.5 | 0.00 | 0.00 | 0.00 | 11 | 950.4 |
| 20260902210002 | 97 | 224 | 7.8 | 14.8 | 0.00 | 0.00 | 0.00 | 12 | 950.6 |
| 20260902204501 | 95 | 214 | 7.0 | 14.8 | 0.00 | 0.00 | 0.00 | 12 | 950.8 |
| 20260902203101 | 96 | 229 | 8.7 | 15.6 | 0.00 | 0.00 | 0.00 | 11 | 951.1 |
| 20260902201630 | 95 | 240 | 8.7 | 13.0 | 0.00 | 0.00 | 0.00 | 12 | 951.4 |
| 20260902200109 | 96 | 192 | 8.7 | 13.0 | 0.00 | 0.00 | 0.00 | 12 | 951.5 |
| 20260902194559 | 94 | 140 | 9.6 | 13.9 | 0.00 | 0.00 | 0.00 | 12 | 951.5 |
| 20260902193055 | 94 | 164 | 10.4 | 16.5 | 0.00 | 0.00 | 0.00 | 12 | 951.7 |
| 20260902191553 | 93 | 241 | 7.0 | 14.8 | 0.00 | 0.00 | 0.00 | 14 | 951.9 |
| 20260902190051 | 93 | 191 | 6.1 | 13.9 | 0.00 | 0.00 | 0.00 | 15 | 952.0 |
| 20260902184550 | 93 | 142 | 5.2 | 13.0 | 0.00 | 0.00 | 0.00 | 16 | 952.2 |
| 20260902183053 | 92 | 229 | 7.0 | 13.9 | 0.00 | 0.00 | 0.00 | 16 | 952.5 |
| 20260902181554 | 91 | 6.1 | 9.6 | 0.00 | 0.00 | 0.00 | 16 | 952.6 | |
| 20260902180056 | 90 | 159 | 4.3 | 9.6 | 0.00 | 0.00 | 0.00 | 17 | 952.7 |
| 20260902174545 | 89 | 198 | 7.8 | 15.6 | 0.00 | 0.00 | 0.00 | 19 | 952.9 |
| 20260902173043 | 89 | 238 | 7.0 | 12.2 | 0.00 | 0.00 | 0.00 | 20 | 952.9 |
| 20260902171545 | 88 | 243 | 8.7 | 14.8 | 0.00 | 0.00 | 0.00 | 21 | 952.9 |
| 20260902170041 | 87 | 206 | 4.3 | 9.6 | 0.00 | 0.00 | 0.00 | 22 | 952.8 |
| 20260902164551 | 86 | 243 | 6.1 | 9.6 | 0.00 | 0.00 | 0.00 | 22 | 952.8 |
| 20260902163043 | 86 | 240 | 2.6 | 7.8 | 0.00 | 0.00 | 0.00 | 21 | 952.8 |
| 20260902161539 | 86 | 242 | 3.5 | 9.6 | 0.00 | 0.00 | 0.00 | 20 | 952.7 |
| 20260902160038 | 85 | 241 | 6.1 | 9.6 | 0.00 | 0.00 | 0.00 | 19 | 952.7 |
| 20260902154543 | 85 | 5.2 | 7.8 | 0.00 | 0.00 | 0.00 | 20 | 952.6 | |
| 20260902153038 | 85 | 259 | 3.5 | 7.8 | 0.00 | 0.00 | 0.00 | 20 | 952.5 |